• In Deutschland
  • Länderverzeichnis
  • Für 7 Tage
  • Wassertemperatur
  • Satellitenkarten
  • Wetterkarte
  • Widgets
  • user-avatar
    Anmelden

    Stündliche Wetter Bramsche

    Heute, 19 Februar, Montag

    Zeit Temperatur Niederschläge Wind Luftdruck Luftfeuchtigkeit
    00:00 -1°C° 0 mm 2 m/S 762 mmHg 78%
    01:00 -1°C° 0 mm 2 m/S 762 mmHg 79%
    02:00 -1°C° 0 mm 2 m/S 762 mmHg 78%
    03:00 -1°C° 0 mm 2 m/S 761 mmHg 77%
    04:00 -1°C° 0 mm 2 m/S 761 mmHg 77%
    05:00 -1°C° 0 mm 2 m/S 761 mmHg 77%
    06:00 -1°C° 0 mm 2 m/S 760 mmHg 76%
    07:00 -1°C° 0 mm 2 m/S 760 mmHg 76%
    08:00 +1°C° 0 mm 2 m/S 760 mmHg 73%
    09:00 +1°C° 0 mm 2 m/S 760 mmHg 69%
    10:00 +2°C° 0 mm 2 m/S 760 mmHg 66%
    11:00 +3°C° 0 mm 2 m/S 760 mmHg 62%
    12:00 +4°C° 0 mm 2 m/S 759 mmHg 58%
    13:00 +5°C° 0 mm 2 m/S 759 mmHg 53%
    14:00 +5°C° 0 mm 2 m/S 759 mmHg 55%
    15:00 +6°C° 0 mm 1 m/S 758 mmHg 56%
    16:00 +6°C° 0 mm 1 m/S 758 mmHg 57%
    17:00 +5°C° 0 mm 1 m/S 758 mmHg 61%
    18:00 +4°C° 0 mm 1 m/S 758 mmHg 64%
    19:00 +2°C° 0 mm 1 m/S 758 mmHg 68%
    20:00 +2°C° 0 mm 1 m/S 758 mmHg 70%
    21:00 +2°C° 0 mm 1 m/S 758 mmHg 72%
    22:00 +1°C° 0 mm 1 m/S 758 mmHg 73%
    23:00 +1°C° 0 mm 1 m/S 758 mmHg 74%

    Morgen, 20 Februar, Dienstag

    Zeit Temperatur Niederschläge Wind Luftdruck Luftfeuchtigkeit
    00:00 +1°C° 0 mm 1 m/S 758 mmHg 76%
    01:00 +1°C° 0 mm 1 m/S 758 mmHg 77%
    02:00 +1°C° 0 mm 1 m/S 758 mmHg 78%
    03:00 -2°C° 0 mm 2 m/S 758 mmHg 79%
    04:00 -2°C° 0 mm 2 m/S 758 mmHg 81%
    05:00 -2°C° 0 mm 2 m/S 758 mmHg 82%
    06:00 -2°C° 0 mm 2 m/S 758 mmHg 82%
    07:00 -2°C° 0 mm 2 m/S 758 mmHg 83%
    08:00 -1°C° 0 mm 3 m/S 758 mmHg 78%
    09:00 0°C° 0 mm 3 m/S 758 mmHg 72%
    10:00 +1°C° 0 mm 3 m/S 759 mmHg 67%
    11:00 +2°C° 0 mm 3 m/S 759 mmHg 62%
    12:00 +3°C° 0 mm 4 m/S 759 mmHg 56%
    13:00 +4°C° 0 mm 4 m/S 759 mmHg 51%
    14:00 +4°C° 0 mm 4 m/S 759 mmHg 52%
    15:00 +4°C° 0 mm 4 m/S 759 mmHg 53%
    16:00 +4°C° 0 mm 4 m/S 759 mmHg 55%
    17:00 +1°C° 0 mm 4 m/S 760 mmHg 61%
    18:00 0°C° 0 mm 4 m/S 760 mmHg 68%
    19:00 -1°C° 0 mm 3 m/S 761 mmHg 74%
    20:00 -1°C° 0 mm 3 m/S 762 mmHg 76%
    21:00 -2°C° 0 mm 3 m/S 762 mmHg 78%
    22:00 -2°C° 0 mm 3 m/S 763 mmHg 80%
    23:00 -2°C° 0 mm 3 m/S 763 mmHg 81%

    übermorgen, 21 Februar, Mittwoch

    Zeit Temperatur Niederschläge Wind Luftdruck Luftfeuchtigkeit
    00:00 -4°C° 0 mm 3 m/S 763 mmHg 83%
    01:00 -3°C° 0 mm 2 m/S 764 mmHg 84%
    02:00 -3°C° 0 mm 2 m/S 764 mmHg 84%
    03:00 -3°C° 0 mm 2 m/S 764 mmHg 84%
    04:00 -3°C° 0 mm 2 m/S 764 mmHg 84%
    05:00 -3°C° 0 mm 2 m/S 764 mmHg 84%
    06:00 -3°C° 0 mm 2 m/S 764 mmHg 85%
    07:00 -3°C° 0 mm 2 m/S 764 mmHg 85%
    08:00 -2°C° 0 mm 2 m/S 764 mmHg 79%
    09:00 -1°C° 0 mm 2 m/S 764 mmHg 73%
    10:00 +1°C° 0 mm 2 m/S 764 mmHg 67%
    11:00 +2°C° 0 mm 2 m/S 764 mmHg 62%
    12:00 +3°C° 0 mm 2 m/S 764 mmHg 57%
    13:00 +4°C° 0 mm 2 m/S 764 mmHg 52%
    14:00 +4°C° 0 mm 2 m/S 763 mmHg 53%
    15:00 +3°C° 0 mm 3 m/S 763 mmHg 54%
    16:00 +3°C° 0 mm 3 m/S 763 mmHg 54%
    17:00 +1°C° 0 mm 3 m/S 763 mmHg 61%
    18:00 +1°C° 0 mm 2 m/S 763 mmHg 67%
    19:00 -1°C° 0 mm 2 m/S 763 mmHg 73%
    20:00 -2°C° 0 mm 2 m/S 763 mmHg 75%
    21:00 -2°C° 0 mm 2 m/S 763 mmHg 76%
    22:00 -2°C° 0 mm 2 m/S 763 mmHg 78%
    23:00 -3°C° 0 mm 2 m/S 763 mmHg 78%

    22 Februar, Donnerstag

    Zeit Temperatur Niederschläge Wind Luftdruck Luftfeuchtigkeit
    00:00 -3°C° 0 mm 2 m/S 763 mmHg 78%
    01:00 -3°C° 0 mm 2 m/S 763 mmHg 79%
    02:00 -3°C° 0 mm 2 m/S 763 mmHg 79%
    03:00 -3°C° 0 mm 2 m/S 763 mmHg 80%
    04:00 -4°C° 0 mm 3 m/S 763 mmHg 80%
    05:00 -4°C° 0 mm 3 m/S 763 mmHg 80%
    06:00 -4°C° 0 mm 3 m/S 763 mmHg 80%
    07:00 -4°C° 0 mm 3 m/S 763 mmHg 80%
    08:00 -3°C° 0 mm 4 m/S 763 mmHg 72%
    09:00 -2°C° 0 mm 4 m/S 763 mmHg 65%
    10:00 -2°C° 0 mm 4 m/S 764 mmHg 58%
    11:00 -1°C° 0 mm 5 m/S 763 mmHg 53%
    12:00 0°C° 0 mm 5 m/S 763 mmHg 49%
    13:00 +1°C° 0 mm 5 m/S 763 mmHg 44%
    14:00 +1°C° 0 mm 5 m/S 763 mmHg 45%
    15:00 +1°C° 0 mm 5 m/S 762 mmHg 46%
    16:00 +1°C° 0 mm 5 m/S 762 mmHg 46%
    17:00 0°C° 0 mm 4 m/S 762 mmHg 52%
    18:00 -1°C° 0 mm 4 m/S 762 mmHg 57%
    19:00 -2°C° 0 mm 3 m/S 763 mmHg 63%
    20:00 -2°C° 0 mm 3 m/S 763 mmHg 66%
    21:00 -2°C° 0 mm 3 m/S 763 mmHg 70%
    22:00 -2°C° 0 mm 3 m/S 763 mmHg 73%
    23:00 -2°C° 0 mm 3 m/S 763 mmHg 76%

    23 Februar, Freitag

    Zeit Temperatur Niederschläge Wind Luftdruck Luftfeuchtigkeit
    00:00 -4°C° 0 mm 3 m/S 763 mmHg 80%
    01:00 -4°C° 0 mm 3 m/S 763 mmHg 84%
    02:00 -4°C° 0 mm 3 m/S 762 mmHg 85%
    03:00 -4°C° 0 mm 3 m/S 762 mmHg 85%
    04:00 -4°C° 0 mm 4 m/S 762 mmHg 86%
    05:00 -4°C° 0 mm 4 m/S 762 mmHg 84%
    06:00 -5°C° 0 mm 4 m/S 762 mmHg 83%
    07:00 -5°C° 0 mm 4 m/S 762 mmHg 81%
    08:00 -5°C° 0 mm 5 m/S 763 mmHg 75%
    09:00 -4°C° 0 mm 5 m/S 763 mmHg 69%
    10:00 -2°C° 0 mm 5 m/S 763 mmHg 62%
    11:00 -2°C° 0 mm 6 m/S 763 mmHg 58%
    12:00 -2°C° 0 mm 6 m/S 763 mmHg 53%
    13:00 -1°C° 0 mm 6 m/S 763 mmHg 48%
    14:00 -1°C° 0 mm 6 m/S 763 mmHg 48%
    15:00 -1°C° 0 mm 6 m/S 763 mmHg 48%
    16:00 -1°C° 0 mm 6 m/S 763 mmHg 48%
    17:00 -1°C° 0 mm 5 m/S 763 mmHg 53%
    18:00 -4°C° 0 mm 5 m/S 763 mmHg 57%
    19:00 -4°C° 0 mm 4 m/S 764 mmHg 61%
    20:00 -4°C° 0 mm 4 m/S 764 mmHg 62%
    21:00 -4°C° 0 mm 4 m/S 764 mmHg 62%
    22:00 -5°C° 0 mm 4 m/S 765 mmHg 63%
    23:00 -5°C° 0 mm 4 m/S 765 mmHg 65%

    24 Februar, Samstag

    Zeit Temperatur Niederschläge Wind Luftdruck Luftfeuchtigkeit
    00:00 -5°C° 0 mm 4 m/S 765 mmHg 67%
    01:00 -5°C° 0 mm 4 m/S 765 mmHg 69%
    02:00 -5°C° 0 mm 4 m/S 765 mmHg 69%
    03:00 -7°C° 0 mm 4 m/S 765 mmHg 70%
    04:00 -6°C° 0 mm 3 m/S 766 mmHg 70%
    05:00 -7°C° 0 mm 4 m/S 766 mmHg 69%
    06:00 -7°C° 0 mm 4 m/S 766 mmHg 68%
    07:00 -7°C° 0 mm 4 m/S 766 mmHg 67%
    08:00 -7°C° 0 mm 4 m/S 767 mmHg 62%
    09:00 -6°C° 0 mm 5 m/S 767 mmHg 56%
    10:00 -6°C° 0 mm 6 m/S 767 mmHg 51%
    11:00 -5°C° 0 mm 6 m/S 767 mmHg 45%
    12:00 -5°C° 0 mm 6 m/S 767 mmHg 39%
    13:00 -4°C° 0 mm 6 m/S 767 mmHg 34%
    14:00 -4°C° 0 mm 6 m/S 767 mmHg 33%
    15:00 -5°C° 0 mm 6 m/S 767 mmHg 33%
    16:00 -5°C° 0 mm 6 m/S 767 mmHg 32%
    17:00 -5°C° 0 mm 6 m/S 767 mmHg 36%
    18:00 -6°C° 0 mm 5 m/S 767 mmHg 41%
    19:00 -7°C° 0 mm 5 m/S 768 mmHg 45%
    20:00 -7°C° 0 mm 5 m/S 768 mmHg 48%
    21:00 -8°C° 0 mm 5 m/S 768 mmHg 51%
    22:00 -8°C° 0 mm 5 m/S 768 mmHg 53%
    23:00 -8°C° 0 mm 5 m/S 768 mmHg 53%
    Mehr zeigen